Location: *
(42.0175°N, 9.4056°E)
Time: 20:20:15
(UTC+00:00)

Cosmos 1666 - Pass Details

Date: 25 August 2019
Orbit: 498 x 521 km, 82.5° (Epoch: 13 October)

Event Time Altitude Azimuth Distance (km) Brightness Sun altitude
Exits shadow 19:40:58 27° 79° (E) 1,023 3.8 -16.6°
Drops below altitude 10° 19:43:52 10° 32° (NNE) 1,748 5.4 -17.1°
Sets 19:46:12 0° 20° (NNE) 2,636 6.5 -17.4°
